(2019 SU3) |
Classification: Apollo [NEO] SPK-ID: 3856703 |
[ hide orbit diagram ]
For accurate long-term ephemerides, please instead use our Horizons system.This orbit viewer was implemented using two-body methods, and hence should not be used for determining accurate long-term trajectories (over several years or decades) or planetary encounter circumstances.
Orbital Elements at Epoch 2459000.5 (2020-May-31.0) TDB
Reference: JPL 26 (heliocentric ecliptic J2000)
Element | Value | Uncertainty (1-sigma) | Units |
e | .1085090679436331 | 8.5633e-08 | |
a | 1.12048246653651 | 1.0172e-07 | au |
q | .99889995844545 | 5.0495e-08 | au |
i | 1.285303156533844 | 1.6912e-06 | deg |
node | 3.253151958068239 | 6.0655e-06 | deg |
peri | 332.3413741364253 | 5.1148e-05 | deg |
M | 227.4813427995384 | 5.9346e-05 | deg |
tp | 2459159.970571345393 (2020-Nov-06.47057135) | 8.9281e-05 | TDB |
period | 433.217532513162 1.19 | 5.8994e-05 1.615e-07 | d yr |
n | .8309912987860492 | 1.1316e-07 | deg/d |
Q | 1.242064974627569 | 1.1276e-07 | au |
|
| | Orbit Determination Parameters
Additional Information
|
[ show covariance matrix ]
Physical Parameter Table
Parameter |
Symbol |
Value |
Units |
Sigma |
Reference |
Notes |
absolute magnitude |
H |
27.2 |
|
.42315 |
MPO504269 |
autocmod 2.8 |
|
[ show close-approach data ]
|